Погода в Гамове

Россия / Пермский край     57°52′11″N   56°05′51″E
темп.,
°C
ветер,
м/с
пор.,
м/с
влажн.,
%
обл.,
%
осадки,
мм/ч
давл.,
гПа
погр.,
м
28 января, чт
чт2823:00−7ююз51687100 0.1 1022463
02:00−7ююз61585100 0.0 1022541
05:00−6юз71687100 0.0 1021634
08:00−6ююз71788100 0.0 1020599
11:00−6юз71588100 0.0 1019637
14:00−5юз61489100 0.0 1019600
17:00−5юз51390100 0.1 1020539
20:00−6юз41192100 0.1 1021446
29 января, пт
пт2923:00−7юз3994100 0.1 1021342
02:00−9ююз2695100 0.0 1021194
05:00−9ю2595100 0.0 1021150
08:00−11ююв2294100 0.0 102152
11:00−9юв239098 0.0 1020122
14:00−5юв2586100 0.0 1019239
17:00−5юв3889100 0.0 1018283
20:00−4юв31086100 0.0 1016313
30 января, сб
сб3023:00−6вюв2687100 0.0 1015127
02:00−4вюв51185100 0.0 1014327
05:00−6вюв51089100 0.0 1013291
08:00−7вюв4994100 0.3 1011328
11:00−8юв4894100 1.2 1011284
14:00−5вюв3794100 0.8 1011354
17:00−4юв3696100 1.6 1011407
20:00−5ююв2996100 0.4 1011350
31 января, вс
вс3123:00−6ю3995100 0.4 1010306
02:00−4ю31195100 0.2 1009527
05:00−4ююз4129499 0.8 1010587
08:00−5юз4109388 0.1 1012421
11:00−7юз4109484 0.2 1013366
14:00−6ююз369496 0.1 1015329
17:00−6ю369598 0.1 1016296
20:00−8ю389391 0.0 1016177
1 февраля, пн
пн123:00−3ю489495 0.0 1016505
02:00−2ююв41093100 0.0 1013541
05:00−2юв61491100 0.0 1010607
08:00−3ююв61594100 0.5 10061057
11:00−4ю61493100 2.8 1004948
14:00−1ююз6139198 0.3 10041175
17:00−4юз6129199 0.8 10051026
20:00−6юз61392100 0.4 1008815